Location: ??????
(41.3794°N, 22.5014°E)
Time: 22:11:16
(UTC+00:00)

USA 81 - Pass Details

Date: 30 November 2020
Orbit: 783 x 791 km, 85.0° (Epoch: 30 November)

Event Time Altitude Azimuth Distance (km) Brightness Sun altitude
Rises 16:15:32 0° 354° (N) 3,287 7.2 -13.6°
Reaches altitude 10° 16:17:54 10° 353° (N) 2,355 6.4 -14.0°
Maximum altitude 16:23:11 80° 268° (W) 805 4.2 -15.0°
Drops below altitude 10° 16:28:27 10° 181° (S) 2,344 6.7 -15.9°
Sets 16:30:48 0° 181° (S) 3,269 7.5 -16.4°
